COSMOS 1473

导读

COSMOS 1473(宇宙1473)是独联体(CIS)发射的一颗人造卫星,于1983年7月6日08:00发射入轨。作为苏联/俄罗斯“宇宙”系列卫星家族成员,该卫星承担着空间技术试验或特定航天任务,是冷战时期航天活动的组成部分。它在轨道运行积累了空间环境数据,为后续航天任务发展提供了技术验证,在人类航天探索历程中留下了印记。

基本信息
目录编号:
14171
目录名称:
COSMOS 1473
国际标识:
1983-069A
轨道中心:
EARTH
卫星名称:
COSMOS 1473
卫星全名:
--
卫星状态:
在轨 (已飞行15687 天)
发射日期:
1983-07-06 UTC
国别 :
俄罗斯(独联体) (CIS)
星等 :
--
轨道信息
数据来源 国际轨道数据 AOE轨道数据
星历时间 2026-06-17T20:16:40+0800
5小时前
查看轨道信息
2026-06-11T22:00:00+0800
6天前
查看轨道信息
半长轴 7806.174km 7806.176km
偏心率 0.0044113 0.0044189
轨道倾角 74.026° 74.027°
近地点辐角 252.545° 261.582°
升交点赤经 348.799° 356.809°
平近点角 168.259° 304.058°
近地点 1393.601km 1393.544km
远地点 1462.473km 1462.534km
周期 114.398分钟 114.398分钟
每日圈数 12.587673 12.587669
详细信息
使用方式:
暂无
2D轨道图
3D轨道图
轨道高度分析图
轨道倾角分析图
轨道综合分析图
查看轨道综合分析图